Theta_e
322 323 323 323 323 323 323 323 323 323 323 323 324 323 323 323 322 318 308 317 321 339 335 317 315 313 316 319 323 322 310 306 308 310 313 324 319 324 327 323 325 326 326 331 333
322 322 322 323 323 323 323 322 322 323 323 323 323 322 322 322 316 314 327 337 338 343 311 312 312 313 316 318 319 315 306 310 316 316 317 321 320 321 320 320 321 323 326 329 330
321 321 322 322 322 322 322 322 322 323 323 322 322 322 322 321 314 313 340 340 341 339 315 315 319 321 316 317 319 317 308 316 318 319 323 319 319 322 317 314 320 319 316 318 319
320 321 321 321 321 321 321 322 322 322 323 322 322 322 323 317 300 312 344 342 342 322 316 314 320 316 312 315 320 313 320 321 323 326 324 319 321 316 318 317 323 320 317 317 317
320 320 320 321 321 321 321 321 321 321 321 321 322 323 315 310 313 328 344 342 326 315 312 312 319 315 311 314 315 315 317 322 325 322 321 321 317 316 317 321 321 319 316 315 316
319 320 320 320 320 320 320 319 319 320 320 321 322 323 318 305 318 329 324 322 317 314 311 312 319 320 317 318 313 315 316 319 321 321 320 316 316 318 319 321 318 315 313 314 316
319 319 319 319 319 320 319 318 318 319 321 322 323 321 315 309 321 324 319 316 316 317 314 321 327 320 319 316 321 319 309 314 312 320 318 319 314 313 320 320 316 313 311 314 315
318 318 318 319 319 319 320 319 318 319 322 323 323 316 308 321 319 317 316 316 318 318 322 325 326 321 316 320 316 312 313 303 307 318 320 319 307 315 320 317 315 312 311 313 315
318 317 318 318 319 319 318 317 319 321 323 323 317 313 310 323 316 319 319 317 316 316 322 330 324 317 315 309 306 307 298 303 309 314 315 314 309 317 321 318 316 314 312 312 314
317 317 317 317 318 318 316 317 319 318 320 323 322 307 312 312 314 319 317 317 314 312 313 315 306 308 308 305 298 301 300 304 304 311 312 310 311 316 319 319 317 317 316 313 317
317 316 316 317 317 316 312 312 312 312 315 311 308 308 311 317 316 314 316 314 312 308 301 303 305 302 305 312 311 309 305 305 308 309 308 307 308 312 316 318 317 317 316 317 318
316 316 317 316 316 316 311 308 315 313 306 316 317 314 316 316 309 312 316 307 306 301 304 304 302 310 314 314 312 310 305 304 307 310 309 308 307 311 314 315 316 314 315 316 316
315 315 316 316 315 311 309 314 318 315 304 311 316 315 314 312 308 309 312 308 304 301 304 302 307 315 313 310 308 305 304 304 305 309 310 305 302 307 313 314 315 316 317 317 315
315 315 315 315 313 312 310 317 316 313 299 305 310 313 313 312 309 314 313 309 303 302 307 306 311 311 309 309 309 302 310 310 307 303 296 306 292 304 309 307 308 309 311 312 317
314 315 315 314 307 306 314 314 315 313 292 311 308 314 312 309 309 309 313 308 304 308 308 305 306 307 306 309 310 305 312 306 307 302 299 300 292 299 305 304 307 309 311 312 313
314 314 314 312 310 311 313 312 313 300 294 305 309 307 306 307 309 311 313 315 314 311 311 307 313 311 309 312 311 311 305 303 300 298 290 295 293 294 300 305 309 311 311 313 314
313 313 311 315 310 309 308 311 299 294 309 308 303 306 304 305 309 311 312 309 305 300 300 308 309 313 314 306 308 302 295 288 287 289 291 300 294 295 304 308 308 309 311 312 311
312 310 310 313 309 310 311 307 297 307 309 315 315 311 303 311 313 313 310 306 310 306 301 299 297 309 312 307 303 300 294 289 284 286 289 298 291 295 305 309 309 310 309 310 313
308 309 306 310 313 312 309 302 303 309 315 314 311 308 306 311 311 311 308 307 308 307 300 299 300 311 311 310 305 301 297 298 293 293 289 294 300 305 310 307 309 308 309 309 309
307 316 315 312 314 315 306 302 310 318 318 315 306 309 303 305 306 308 307 309 310 309 308 304 297 307 309 309 307 303 305 294 292 284 284 291 292 294 298 303 307 309 307 307 311
312 311 314 313 318 310 300 305 313 319 318 313 310 308 307 304 308 307 304 308 309 308 307 302 298 302 306 301 298 298 296 297 295 292 286 288 291 299 296 298 303 304 308 308 308
314 306 318 315 303 306 305 314 313 316 316 313 311 309 306 306 307 304 303 306 311 309 300 303 299 296 300 306 307 301 297 297 290 289 291 289 291 304 298 298 299 301 307 306 306
313 316 318 313 300 304 312 315 317 314 311 309 309 310 310 305 303 307 307 311 314 310 306 305 298 293 296 299 303 298 297 298 296 292 289 286 291 300 300 299 299 298 301 303 304
312 310 308 309 312 309 309 311 312 318 311 311 309 310 307 306 307 306 306 313 316 316 319 310 298 296 292 294 298 295 295 297 294 289 289 290 293 296 297 297 298 298 300 303 305
315 310 307 300 307 310 310 311 310 311 312 310 307 308 306 301 306 306 310 310 313 316 311 303 295 298 298 301 300 296 295 296 293 292 288 291 293 295 298 297 298 303 304 306 305
309 314 313 312 313 312 308 309 311 309 308 307 306 308 307 304 306 304 308 307 308 313 308 305 296 298 298 301 299 296 298 299 299 297 296 296 294 300 305 303 303 304 305 305 305
328 325 314 311 313 311 311 314 314 312 311 313 310 307 306 309 311 309 310 309 309 308 306 303 300 299 293 302 300 291 297 299 299 301 299 293 298 303 304 304 304 305 305 307 308
Wind_Speed
13 13 12 12 11 11 12 12 11 12 10 10 10 10 11 12 15 4 4 9 3 11 3 3 1 4 6 5 6 6 5 4 9 8 5 8 6 5 6 7 5 4 7 7 9
13 13 12 11 11 11 11 12 11 11 10 9 10 11 11 11 2 4 8 9 7 11 3 5 3 5 5 6 3 7 3 3 4 5 5 6 8 7 5 9 7 10 8 6 9
12 11 12 12 11 11 11 11 11 10 9 9 10 11 11 7 3 6 9 10 9 9 3 2 2 11 8 4 4 4 2 7 3 6 15 8 13 7 11 5 5 10 7 7 14
14 14 14 13 12 12 12 12 11 11 9 9 10 11 11 1 1 3 5 10 8 6 3 6 7 8 7 6 8 7 4 9 19 13 6 2 7 6 5 3 9 8 7 7 11
13 13 13 13 12 13 13 12 10 9 9 9 10 10 1 2 8 4 7 6 5 3 4 8 13 6 9 3 5 4 5 11 24 18 11 14 11 10 11 13 12 9 8 7 7
12 13 13 13 13 13 13 11 9 9 8 8 9 9 1 2 3 9 9 6 5 4 1 7 8 7 7 3 3 4 6 6 5 9 8 16 12 7 11 12 16 11 6 3 7
12 12 13 13 14 14 14 12 9 9 8 7 7 3 1 9 8 9 10 7 5 7 5 8 14 8 8 8 4 5 3 3 5 2 5 18 7 7 13 11 10 14 9 8 7
14 13 14 14 14 14 15 14 12 8 7 5 3 2 6 5 6 7 5 6 7 5 2 11 8 10 4 5 6 5 3 2 4 5 5 2 6 14 14 15 13 16 14 10 9
13 12 13 14 14 15 16 18 15 8 6 3 2 1 9 3 5 8 6 5 6 2 8 9 8 6 3 6 4 3 4 2 6 5 5 5 11 12 11 11 12 9 11 12 9
13 12 12 12 13 15 20 12 3 5 4 5 3 2 4 5 3 3 5 5 2 3 9 3 6 4 4 5 4 5 5 5 6 5 9 15 10 11 7 7 12 10 12 9 8
15 12 12 11 11 12 10 5 5 3 1 7 5 4 2 3 2 4 4 2 4 8 5 4 8 4 8 7 6 6 4 6 8 2 11 8 7 5 1 7 13 5 15 7 2
15 13 12 11 10 8 2 1 6 3 8 9 12 8 8 2 6 8 3 3 3 3 1 6 4 1 9 10 8 5 3 1 11 14 13 8 6 6 11 9 17 17 14 10 6
13 12 11 11 9 1 1 7 9 9 1 11 6 6 6 8 10 9 10 6 6 1 1 5 2 4 6 4 7 5 3 2 5 14 19 7 10 4 8 10 8 10 11 7 7
13 12 11 14 3 3 6 5 8 6 5 8 3 6 4 5 5 8 11 8 3 10 6 1 3 4 4 4 2 3 4 5 19 8 4 3 5 6 5 7 7 7 4 5 7
12 10 9 9 2 3 7 11 11 6 2 7 6 4 6 9 3 5 8 5 6 4 6 3 3 4 2 4 4 7 3 6 19 11 6 7 7 3 4 3 9 10 6 5 6
12 9 8 2 1 7 9 13 5 7 5 5 5 7 3 3 5 1 3 4 2 5 6 4 1 3 2 5 3 3 3 13 6 6 6 7 3 4 2 6 4 6 7 6 9
12 8 4 2 6 5 7 6 7 3 5 5 2 3 6 5 4 6 7 8 4 6 5 3 4 2 3 8 6 12 7 4 5 7 2 7 4 5 5 3 5 7 8 8 5
14 7 7 5 5 7 5 6 3 4 4 6 9 8 3 7 8 11 10 9 11 6 3 3 8 6 6 1 2 4 4 6 1 4 2 6 3 5 2 6 6 6 3 8 7
15 1 2 7 4 3 6 4 5 4 4 12 5 9 5 6 7 6 11 6 6 6 4 4 5 5 13 16 5 6 4 1 8 5 5 2 3 7 5 3 4 4 7 8 3
2 3 4 2 8 5 5 4 4 3 9 12 1 3 5 6 3 5 4 5 3 9 2 2 4 9 5 8 9 5 4 6 5 4 4 2 2 4 7 4 5 6 6 6 8
2 3 6 7 5 6 2 3 6 15 12 4 0 3 3 4 5 5 4 3 6 6 8 3 5 6 9 7 5 6 6 6 6 4 5 4 2 5 3 0 4 2 6 9 7
2 3 4 3 4 0 1 3 5 6 5 5 7 7 4 7 7 6 5 5 6 4 3 3 6 5 11 5 4 2 4 4 6 1 3 5 2 3 0 5 6 2 6 5 9
1 3 3 6 3 3 2 5 3 5 5 6 8 7 7 6 8 10 4 2 3 5 2 3 3 4 5 7 9 8 11 5 5 4 3 5 0 4 4 4 3 2 4 5 5
3 3 6 5 2 7 2 4 7 3 7 10 3 10 9 10 6 4 5 3 3 6 5 10 5 6 5 5 2 6 12 13 8 7 4 4 3 7 7 2 2 6 4 3 3
2 4 5 2 4 6 3 1 8 1 3 6 9 10 6 6 8 6 6 3 7 9 7 8 5 8 5 4 10 8 11 14 12 5 7 5 7 6 9 4 3 2 5 6 7
2 2 4 1 5 9 6 7 6 9 7 6 10 7 9 6 6 3 5 3 1 7 5 5 3 4 5 10 14 10 11 13 11 8 7 5 7 6 8 6 13 13 13 12 8
3 2 4 5 3 5 3 3 3 3 11 6 9 8 10 8 7 5 6 4 4 5 3 4 5 3 1 2 3 11 8 12 11 11 3 7 3 5 14 12 7 9 9 11 11
Wind_Direction
339 333 326 321 317 323 320 314 327 318 323 313 313 312 311 319 310 147 237 216 171 162 173 173 228 335 26 70 75 122 67 183 176 169 212 152 108 53 56 98 59 26 71 85 106
334 328 320 312 314 322 313 313 321 313 311 314 318 312 319 331 310 244 236 168 120 146 200 51 292 88 55 38 20 73 56 256 151 165 107 75 102 117 101 95 78 93 62 66 101
332 325 318 311 329 316 308 318 314 310 311 323 319 313 317 318 334 250 172 154 161 172 98 251 338 98 62 28 40 39 338 297 85 88 95 90 65 102 116 56 129 134 115 96 106
333 331 327 323 319 311 318 313 315 316 320 329 318 315 309 255 84 246 159 143 166 192 112 51 358 62 54 131 169 130 343 47 47 67 100 86 112 89 73 109 115 111 97 97 98
328 328 325 319 317 319 311 311 319 320 328 322 317 321 281 353 249 150 144 137 170 149 113 123 91 114 150 195 50 109 126 93 128 156 129 121 117 104 90 105 104 92 86 97 103
326 324 323 319 321 317 309 314 319 319 315 309 309 313 346 316 191 145 153 161 204 181 144 143 171 180 109 82 38 68 82 96 121 164 127 110 121 81 128 133 118 114 112 121 137
328 325 322 324 322 318 313 314 314 303 297 286 291 288 35 232 158 164 173 202 196 172 157 153 158 143 128 127 120 94 43 233 338 193 107 116 87 98 145 143 138 136 150 177 184
328 328 328 327 321 320 315 309 293 285 282 265 249 237 254 234 143 148 185 289 243 191 226 171 92 80 35 124 43 76 75 293 203 184 104 18 89 145 160 165 161 172 163 182 198
327 326 325 325 326 321 312 296 284 272 186 160 169 71 290 339 156 227 156 231 304 319 166 131 72 94 53 99 50 51 267 210 316 83 113 72 135 173 181 175 175 164 193 176 198
328 325 324 325 331 323 309 277 292 295 153 181 269 17 290 246 233 226 183 220 260 344 104 70 60 103 40 58 176 212 234 238 225 86 72 86 126 173 197 191 190 177 214 178 176
328 328 325 326 329 329 343 6 12 11 101 193 195 232 264 238 321 271 256 30 343 56 26 7 77 86 177 163 264 184 213 220 75 6 61 109 167 208 305 263 220 198 99 166 228
325 329 323 322 316 328 299 223 225 130 309 220 237 236 249 265 252 254 119 140 61 276 21 16 160 182 97 143 150 198 182 331 87 111 86 112 99 32 44 44 96 106 164 174 171
322 324 320 310 312 275 241 246 295 33 334 299 208 199 219 149 206 214 150 184 201 256 260 168 37 159 144 138 131 225 172 148 143 95 129 95 57 30 77 96 117 156 158 175 169
323 324 320 310 346 350 266 259 291 132 56 279 226 253 221 137 276 201 199 157 140 207 164 87 275 107 61 64 81 330 249 251 129 115 173 195 141 28 109 122 151 188 197 217 195
322 323 325 3 281 308 254 312 294 70 29 255 239 206 167 154 239 261 166 66 161 199 101 251 13 354 347 176 204 238 221 93 108 109 101 7 81 212 183 189 201 232 226 238 227
320 323 317 108 232 252 318 302 56 46 266 292 159 175 160 199 253 358 98 69 148 108 52 182 346 54 260 250 182 259 42 99 94 97 57 303 117 306 4 292 200 217 238 239 220
314 299 282 316 243 27 338 28 45 122 298 302 222 189 188 243 220 106 65 42 66 53 13 343 342 299 5 4 24 49 51 1 3 35 86 324 44 249 303 327 265 217 223 221 170
312 298 211 228 265 16 26 50 84 266 267 260 283 243 201 108 65 69 74 58 28 69 81 67 6 4 335 17 237 47 140 150 212 145 150 349 15 281 275 320 25 72 151 140 176
316 217 278 255 156 130 59 47 218 221 264 338 307 54 8 48 106 91 66 44 40 18 92 54 49 35 66 47 42 326 18 58 102 56 87 309 345 303 285 269 116 140 149 184 183
21 3 266 226 142 70 70 240 246 254 341 348 50 35 49 355 89 86 72 330 28 36 62 308 126 4 67 33 9 58 284 22 14 114 116 144 320 279 329 301 197 214 217 204 209
43 29 257 132 79 55 159 243 312 318 307 177 229 76 110 80 67 70 50 338 34 344 50 35 85 344 48 22 15 352 15 51 107 96 135 150 287 235 127 72 110 239 207 207 208
65 46 290 83 54 6 72 307 314 328 359 82 53 44 57 68 51 71 63 56 330 318 53 13 101 83 107 42 19 353 345 109 110 120 92 124 274 23 236 124 116 176 213 211 203
63 278 328 95 144 318 244 330 350 319 40 37 48 41 26 38 80 117 104 204 48 66 38 352 59 101 301 1 348 35 30 41 89 76 11 101 147 1 78 58 356 356 315 201 186
76 27 324 39 106 125 254 39 340 316 51 70 80 58 47 23 35 120 134 52 32 78 72 76 27 121 140 185 216 49 50 52 88 76 75 108 119 357 346 140 29 42 14 96 168
59 261 201 224 283 120 116 81 327 346 61 56 16 79 107 43 37 34 42 71 35 7 51 96 85 108 121 100 69 82 70 62 80 145 90 79 79 339 325 40 17 51 50 45 61
90 58 342 45 354 74 30 26 343 53 41 16 99 79 85 91 122 78 110 67 110 22 64 20 150 70 51 80 75 62 80 61 51 50 70 86 68 344 351 5 38 27 18 11 344
288 324 107 303 50 81 146 210 314 327 6 70 124 95 96 156 131 137 113 130 113 129 109 92 129 86 269 15 60 33 356 89 77 38 18 43 317 2 16 1 30 27 15 1 1